Location: ShareBrained
(45.5589°N, 122.6491°W)
Time: 13:35:48
(UTC-08:00)

NOAA 19 - Pass Details

Date: 20 January 2020
Orbit: 840 x 862 km, 99.2° (Epoch: 24 February)

Event Time Altitude Azimuth Distance (km) Brightness Sun altitude
Rises 18:45:29 0° 222° (SW) 3,415 9.2 -18.2°
Reaches altitude 10° 18:49:50 10° 255° (WSW) 2,481 8.9 -19.0°
Maximum altitude 18:51:32 11° 273° (W) 2,384 8.7 -19.3°
Drops below altitude 10° 18:53:14 10° 291° (WNW) 2,482 8.5 -19.6°
Sets 18:57:38 0° 325° (NW) 3,420 8.7 -20.3°
